RH
4 4 6 17 23 22 19 30 37 42 48 52 50 49 64 61 62 82 96 49 41 52 45 53 43 38 40 39 34 37 33 18 17 19 21 24 31 32 34 25 25 38 41 64 75 80 80 80 77
4 4 8 18 24 21 29 33 40 47 48 38 42 39 54 50 38 42 64 61 54 44 59 49 41 41 34 33 32 24 15 15 15 15 17 21 22 22 21 17 20 28 36 44 54 73 70 55 67
3 5 17 21 17 18 29 38 47 45 40 41 48 57 67 82 90 46 55 46 48 39 53 40 35 32 26 17 15 16 17 17 15 13 14 16 16 16 16 16 16 18 27 32 42 46 47 55 58
8 14 16 18 18 26 30 42 40 40 43 41 42 50 31 88 70 45 45 40 42 40 34 30 26 19 15 15 16 17 15 12 13 14 13 16 22 26 27 25 25 22 20 16 18 22 26 26 30
8 16 19 18 26 30 34 38 34 39 39 39 40 76 69 32 21 39 37 36 32 28 24 20 16 15 17 17 16 12 13 14 6 10 15 20 26 23 12 7 8 15 20 23 22 23 23 24 23
20 20 20 21 30 33 37 37 35 36 38 34 42 68 90 24 25 30 33 29 26 23 19 15 17 17 15 13 12 13 8 4 4 4 9 19 9 6 6 6 7 8 9 15 19 25 28 29 28
21 20 21 26 29 33 39 36 28 29 29 32 35 54 59 60 26 31 28 26 23 17 16 19 20 16 12 12 11 4 4 4 4 4 6 7 7 9 12 16 18 19 18 16 12 9 8 6 6
19 17 22 25 27 31 29 29 29 28 35 34 40 42 47 31 27 27 26 21 16 19 20 20 22 13 13 9 5 5 5 4 5 5 9 11 13 16 18 21 22 23 23 23 23 24 24 22 21
15 18 19 18 21 19 18 19 21 24 26 31 50 48 51 25 25 24 21 24 28 24 23 25 16 14 6 5 6 7 8 9 10 13 14 20 23 27 28 29 30 30 29 28 28 28 28 28 29
14 13 13 13 13 14 14 13 20 27 26 33 49 67 38 27 27 23 23 28 33 30 27 23 14 10 8 8 14 23 26 28 28 29 31 31 33 34 36 35 35 35 36 40 36 38 37 36 35
14 15 13 13 12 12 13 14 19 19 21 28 36 58 13 8 19 26 36 71 83 76 87 24 12 8 12 23 28 32 32 36 38 39 41 39 39 38 41 43 43 40 38 36 34 34 34 35 39
14 12 10 13 13 12 13 12 15 15 19 23 28 37 54 27 37 51 72 74 81 91 86 49 9 16 26 31 33 36 42 42 44 42 42 46 45 44 46 51 51 48 47 46 43 41 38 36 34
13 10 13 14 16 18 16 16 15 17 18 22 32 45 58 65 70 74 77 74 74 89 88 59 18 25 30 35 38 42 42 40 40 41 42 43 52 54 53 56 57 54 49 45 46 46 45 41 37
16 17 18 20 22 14 18 21 18 18 22 22 31 41 53 62 66 69 74 72 74 80 84 100 41 28 32 34 38 39 40 42 44 47 47 50 57 58 56 56 55 54 52 50 52 53 46 42 39
20 22 23 24 26 27 23 21 19 23 24 25 28 31 42 49 55 62 67 71 72 79 88 92 90 34 36 39 40 44 44 45 50 52 50 52 58 58 50 56 54 57 45 46 41 39 40 34 34
19 21 22 23 24 25 23 24 19 22 25 25 25 28 34 44 50 54 66 74 76 78 81 94 98 87 40 45 38 40 44 49 53 53 53 58 59 50 46 51 53 52 50 46 40 41 36 36 38
21 19 20 25 23 26 24 22 23 28 30 28 25 25 32 38 47 52 60 68 74 79 85 97 100 94 76 44 40 46 48 57 58 55 65 64 60 61 60 65 70 70 65 57 56 54 52 52 49
17 13 14 16 23 20 20 20 25 29 28 28 26 25 27 33 41 53 65 73 79 80 85 83 81 80 68 50 51 53 59 59 60 57 69 69 70 70 75 77 79 83 85 86 79 73 73 69 66
16 14 14 17 23 22 19 22 26 30 30 32 33 34 35 37 42 54 69 72 65 52 63 42 40 47 50 47 49 48 54 66 66 60 64 72 74 81 79 79 83 70 70 63 57 66 71 77 68
18 20 20 23 25 18 26 24 29 34 37 38 41 45 45 45 46 53 60 66 72 53 47 39 37 47 52 54 59 60 61 63 62 61 65 80 75 74 80 83 68 59 60 63 63 66 63 56 48
22 24 32 30 29 28 26 26 30 36 40 43 47 52 55 49 37 37 40 40 37 38 42 48 52 52 54 61 62 63 63 63 63 65 69 77 82 88 90 66 55 53 55 56 58 54 51 51 49
26 38 36 32 31 26 26 24 30 35 41 48 56 57 57 61 54 33 35 38 42 49 54 52 52 53 56 62 63 62 64 67 69 74 80 82 80 70 53 43 47 54 54 46 40 34 29 30 35
36 37 26 37 35 32 25 30 26 34 40 56 66 72 71 73 59 46 44 46 50 53 51 44 45 52 55 57 64 67 66 70 74 69 64 52 38 35 39 45 52 50 44 32 27 26 27 26 25
26 42 39 39 36 39 30 24 31 34 38 54 68 76 78 64 51 50 52 58 54 53 48 38 36 48 60 56 42 38 37 37 35 36 37 37 37 40 50 53 38 27 24 23 21 19 15 12 11
39 38 40 50 48 48 35 31 39 40 45 54 70 73 73 70 61 65 63 63 66 61 47 38 40 40 41 43 52 55 54 48 44 44 43 40 38 35 30 29 25 19 14 10 8 10 12 18 23
43 39 44 55 64 50 36 28 50 48 43 49 58 72 61 82 77 84 86 86 74 66 47 46 48 53 54 54 58 60 54 50 47 45 40 37 35 36 26 11 7 6 7 10 19 38 52 66 79
44 50 44 41 48 59 31 40 54 60 64 64 71 74 81 87 84 86 97 98 68 48 49 49 50 58 60 58 61 60 58 51 44 41 38 36 23 10 8 6 6 10 24 37 46 57 62 69 78
40 40 43 52 69 51 27 29 53 58 63 67 65 72 79 83 86 92 95 91 73 66 70 76 68 69 68 72 69 65 53 48 44 37 23 11 10 9 6 6 14 32 44 61 68 68 67 67 71
41 42 46 42 41 53 57 37 39 44 54 56 64 67 71 80 73 80 78 70 82 80 90 96 97 82 81 80 72 58 50 40 21 12 12 11 9 10 14 29 51 74 94 97 99 93 90 96 88
47 49 48 50 52 57 56 55 42 47 52 59 65 72 80 90 94 85 96 99 87 97 92 99 98 84 89 74 58 50 31 15 19 18 15 9 9 10 33 70 81 92 98 100 100 87 99 91 100
Wind_Speed
10 14 19 20 5 10 15 8 8 6 5 10 8 14 11 3 3 12 20 13 10 10 11 8 8 9 4 2 1 3 3 4 4 6 8 9 10 12 14 14 15 16 17 18 17 16 16 16 18
12 18 20 9 12 21 12 11 15 12 10 12 14 5 6 8 4 5 12 12 7 7 8 9 9 7 3 2 3 2 3 5 7 10 11 11 13 14 15 15 15 16 16 17 18 18 18 20 19
15 21 13 8 16 30 13 13 15 12 13 6 6 8 11 12 6 8 3 6 7 2 7 8 8 6 3 3 3 5 7 10 13 14 14 14 14 15 16 16 17 17 17 18 18 18 20 20 20
20 17 9 11 11 10 13 13 12 10 8 6 3 2 6 13 7 7 8 7 6 7 8 8 7 4 4 4 6 10 13 13 13 12 12 12 11 11 12 14 16 17 18 19 20 21 20 20 21
21 14 15 9 12 14 13 12 9 8 5 6 2 8 1 8 5 9 9 8 9 10 9 7 4 4 6 9 12 14 13 10 7 8 8 7 7 8 9 11 13 15 15 16 18 18 19 19 20
10 7 15 11 12 10 9 7 4 7 6 4 6 7 4 4 4 8 10 12 10 8 6 3 4 6 10 12 12 11 7 4 5 6 7 6 6 8 9 11 13 15 16 16 17 17 18 18 18
7 9 20 16 12 8 8 6 2 3 1 5 2 6 2 5 6 11 12 10 7 5 5 5 7 10 12 11 8 6 7 7 7 9 9 8 10 11 12 14 14 15 16 17 18 19 19 19 18
12 18 11 11 11 13 6 4 4 6 6 9 7 9 7 10 9 10 10 7 6 6 7 9 11 11 9 7 6 8 8 8 9 9 9 10 12 14 14 15 17 17 17 17 18 19 20 21 21
5 5 12 9 12 8 7 5 7 7 1 6 5 4 10 9 10 11 10 8 7 9 9 10 15 9 8 4 7 8 8 7 9 10 12 15 15 16 14 16 17 18 19 20 20 21 22 23 23
3 10 13 9 8 9 8 5 5 9 4 5 6 6 8 11 12 11 10 9 10 12 10 12 9 7 7 9 6 4 6 6 7 8 12 16 16 17 20 21 19 21 20 21 22 21 23 25 25
8 13 10 8 7 7 8 5 6 5 5 3 5 9 4 8 10 11 6 4 6 7 1 10 5 6 6 6 6 8 8 9 9 10 12 17 18 20 21 23 25 25 25 26 25 24 23 23 24
2 7 9 9 12 8 6 5 5 3 11 8 7 8 9 5 6 6 8 7 6 9 10 14 4 5 6 6 4 1 3 7 12 17 18 19 20 21 23 23 24 24 26 26 25 26 25 26 24
5 7 8 8 10 6 8 5 2 4 8 8 6 7 9 8 7 7 7 9 7 11 12 14 6 7 7 6 5 5 8 11 15 19 22 20 20 21 24 25 26 27 28 29 29 28 28 29 30
8 8 9 7 5 4 9 4 10 8 4 5 8 6 5 5 6 7 10 13 13 14 12 11 13 7 8 9 9 11 13 16 19 22 22 21 23 25 27 28 30 30 31 32 31 30 29 28 28
9 7 5 4 3 1 4 9 8 10 7 6 8 8 9 8 9 10 11 12 10 11 11 13 17 13 12 14 14 15 20 21 23 25 26 26 28 28 28 29 30 30 30 30 30 31 31 29 27
6 6 7 8 6 6 7 11 13 11 8 8 8 8 12 12 10 11 11 10 10 10 9 13 16 24 16 18 22 23 25 25 26 29 30 30 31 29 28 29 30 31 33 33 33 32 30 31 32
7 9 9 7 6 5 7 5 11 9 10 12 11 13 11 12 12 11 13 8 8 11 14 12 16 22 25 23 24 27 27 28 29 31 27 33 35 32 34 35 36 37 38 37 35 35 36 38 39
12 8 2 2 5 3 6 8 4 4 4 7 9 11 9 9 12 16 19 22 24 23 24 24 23 23 27 28 29 29 31 32 32 32 32 36 38 40 38 38 38 39 44 46 44 45 46 46 46
7 4 1 6 2 4 8 9 4 2 1 4 6 11 13 18 22 28 26 29 33 28 25 22 26 27 28 26 28 29 32 33 31 33 37 39 42 42 45 48 51 46 45 46 46 49 49 48 46
2 2 3 2 5 5 5 9 5 6 6 7 9 14 20 24 27 29 30 29 24 21 22 21 19 17 20 25 28 29 31 32 33 36 41 44 47 48 47 51 52 50 48 45 43 43 44 44 41
4 3 3 3 7 11 11 11 12 9 9 12 15 12 5 8 19 23 23 19 14 13 15 17 21 24 24 28 32 31 32 35 37 38 41 44 46 48 53 54 52 50 47 45 41 40 41 45 44
4 1 6 9 10 13 15 13 19 15 12 11 11 10 6 6 12 9 9 11 13 15 17 22 27 29 29 29 33 35 35 37 38 40 43 47 48 53 53 51 50 49 47 46 44 46 48 50 52
4 11 10 9 11 13 15 10 19 21 16 12 9 7 11 11 9 10 14 17 17 19 22 25 28 31 34 31 30 33 36 37 40 44 48 50 50 47 47 48 45 45 47 49 51 54 56 57 59
7 9 11 11 11 13 17 18 20 15 17 15 10 8 6 7 10 15 17 19 24 25 28 28 30 29 31 35 32 34 35 38 41 43 44 45 45 44 42 42 45 48 51 53 55 58 59 59 57
7 8 8 4 6 3 8 1 4 13 14 12 11 7 5 8 12 11 16 20 23 26 30 32 32 29 30 31 36 41 43 41 40 39 40 41 41 40 42 45 50 54 56 57 56 53 49 47 45
5 4 3 4 5 9 4 6 10 15 20 15 11 8 8 5 11 10 14 21 26 28 29 30 30 30 35 40 41 41 38 36 37 38 39 39 42 47 51 53 55 55 54 52 47 40 41 39 38
6 5 4 5 7 4 8 2 9 9 5 3 4 3 6 6 12 13 14 19 29 30 28 32 30 34 40 39 39 37 37 38 38 38 41 44 47 49 51 52 53 50 46 42 38 36 35 35 35
7 4 3 1 2 3 10 11 8 7 6 6 6 6 8 9 11 12 21 25 29 33 33 38 42 45 45 42 38 36 37 36 37 41 43 44 47 49 50 50 48 44 40 36 34 32 32 33 32
4 3 4 6 7 2 3 1 9 5 4 6 4 9 13 15 21 18 25 31 29 36 37 37 45 52 45 38 36 37 37 38 39 40 44 47 49 47 47 45 40 32 28 28 27 34 35 34 37
3 2 3 3 6 8 11 18 18 3 4 9 15 13 12 14 14 18 22 24 36 36 41 40 46 51 39 36 38 38 40 40 41 43 46 47 48 47 45 34 33 32 33 33 38 41 39 38 32
Wind_Direction
173 163 164 175 216 242 244 123 113 108 78 64 92 67 60 124 129 131 166 218 212 168 174 181 176 168 173 199 219 276 310 336 325 306 292 288 291 291 296 295 290 288 285 283 284 285 285 284 285
168 162 163 171 239 254 128 118 107 108 104 91 84 113 37 65 7 103 200 187 202 193 170 185 179 173 229 233 226 251 299 301 306 302 296 292 286 291 287 291 289 286 285 279 279 280 279 281 283
165 165 165 239 247 255 124 137 111 116 108 117 95 106 87 96 177 218 168 170 199 179 178 172 180 213 208 215 251 278 294 301 299 297 294 291 291 291 295 296 294 293 288 285 287 283 282 284 287
158 169 197 248 270 80 133 116 116 117 114 100 89 347 140 129 250 221 186 179 189 157 173 174 180 206 245 279 294 306 304 309 316 317 321 314 306 303 301 299 299 297 293 292 290 291 290 289 288
160 183 243 238 82 92 105 117 111 141 141 122 42 110 71 222 250 159 165 172 185 172 168 178 205 252 291 301 305 309 315 318 329 339 336 335 326 322 322 323 324 321 309 299 296 293 293 292 294
181 208 254 142 105 107 103 111 118 129 135 85 97 111 143 211 182 177 172 176 174 172 184 210 268 297 302 303 306 308 316 323 324 333 341 338 330 335 336 332 328 325 322 319 313 310 308 307 306
214 261 275 120 137 130 122 134 131 141 106 148 115 181 198 168 174 173 171 177 176 193 217 267 294 301 303 303 307 321 317 309 315 328 329 327 327 328 328 323 320 318 316 314 314 313 311 310 309
296 278 225 150 165 126 145 153 167 103 173 152 123 259 201 190 167 168 173 188 201 237 262 276 292 296 295 296 309 319 317 310 316 318 318 317 319 317 320 315 311 308 304 302 301 301 303 303 303
303 175 151 152 153 146 162 167 170 185 72 134 117 86 198 173 183 189 193 207 225 242 261 287 290 298 298 300 316 315 313 313 314 329 324 322 323 317 318 310 310 305 303 301 298 298 297 295 295
343 264 130 99 97 147 149 163 123 119 107 136 143 159 208 188 197 205 219 234 251 253 266 270 274 295 308 312 313 291 315 333 333 344 334 328 333 322 324 322 317 315 314 306 304 304 298 297 298
16 97 118 114 114 135 152 136 127 150 152 175 195 178 199 195 209 219 220 233 245 279 192 270 280 291 295 307 316 337 346 357 348 341 339 331 324 322 327 326 325 323 319 315 314 311 304 302 304
53 78 100 145 150 132 125 154 135 114 138 138 209 219 222 197 185 175 178 219 218 253 251 271 264 272 274 279 293 323 316 330 327 329 330 329 324 321 318 319 322 323 320 321 317 315 312 310 303
136 121 133 140 137 151 174 138 170 172 219 164 187 179 207 197 193 190 178 208 227 230 254 274 247 261 265 274 279 287 300 304 313 316 316 317 315 313 308 308 309 308 312 313 310 308 311 312 311
148 135 137 134 145 150 136 216 157 181 186 166 192 186 215 224 207 206 193 210 217 219 237 249 280 266 275 284 292 293 292 303 305 308 314 312 310 310 310 306 306 305 305 304 302 300 300 300 303
158 148 159 163 183 355 164 211 204 203 180 204 229 205 219 221 212 226 205 211 217 225 226 267 284 276 283 287 289 300 304 307 304 307 311 309 308 311 309 306 306 304 305 303 306 306 305 307 307
170 192 184 169 188 230 238 244 195 208 216 228 240 240 213 228 210 233 226 205 216 231 256 246 265 281 283 287 294 295 297 302 302 303 305 303 302 307 306 309 308 304 305 306 308 310 303 301 300
198 220 168 165 186 213 234 20 151 208 251 240 234 236 220 212 229 226 232 201 210 214 224 244 272 282 291 287 289 295 297 295 297 302 300 297 305 308 307 308 307 305 304 301 300 298 297 296 293
293 197 146 173 175 221 239 246 239 300 261 251 230 217 223 195 215 210 208 203 213 222 229 235 247 255 267 292 294 291 291 292 294 295 287 298 304 303 306 297 293 296 297 297 295 294 293 291 292
0 38 325 167 256 269 242 243 260 69 155 147 175 196 194 203 202 205 211 227 244 248 244 258 268 280 287 287 285 288 290 289 291 292 290 294 297 297 300 301 309 305 301 300 297 294 291 289 288
329 343 278 309 283 258 238 227 185 169 136 130 156 166 183 203 208 217 227 244 259 257 266 273 279 288 293 291 287 285 285 284 284 286 290 293 296 301 304 305 307 303 299 296 294 292 289 286 286
235 270 357 290 293 272 259 232 183 169 155 153 151 130 125 219 230 232 239 248 258 267 275 283 293 299 299 288 288 289 287 288 289 289 291 294 297 301 301 304 303 300 299 298 296 292 290 288 286
316 224 293 299 288 281 203 264 181 177 167 157 150 150 156 209 245 255 253 258 266 279 294 305 305 300 293 286 288 291 291 291 292 293 294 296 298 296 299 300 301 302 300 298 294 290 288 288 288
337 290 293 286 284 285 256 238 220 178 180 177 169 171 197 195 243 272 271 270 274 286 302 310 305 298 295 292 291 292 294 294 295 295 294 296 297 302 302 298 296 293 291 291 293 293 291 288 289
322 326 298 275 266 262 263 257 147 186 194 182 183 180 204 246 270 279 287 299 298 301 312 319 315 307 306 308 307 304 305 303 299 296 298 297 298 298 295 294 294 295 295 293 292 292 293 292 291
348 330 311 216 213 221 4 264 191 161 161 199 191 219 219 249 266 281 295 299 308 316 319 316 316 308 303 304 307 306 305 302 297 297 295 297 298 294 294 294 297 298 300 301 301 300 299 297 294
345 341 356 319 348 317 234 280 144 197 210 226 228 217 274 299 300 315 305 305 304 305 309 313 312 308 301 299 301 301 302 297 299 299 299 301 303 305 307 307 304 303 303 304 303 301 300 301 298
356 31 321 292 284 305 274 261 138 148 153 147 159 185 243 277 296 302 286 295 300 306 306 307 305 312 317 310 304 302 299 301 301 305 305 305 305 304 303 303 302 305 307 306 303 303 302 299 297
28 330 349 326 314 299 319 342 92 185 209 220 252 281 262 308 306 287 294 300 309 311 313 315 315 315 312 308 307 306 306 305 304 301 302 305 304 304 305 304 307 310 306 300 298 298 301 300 299
350 357 325 292 291 272 317 345 29 348 295 272 260 286 284 275 289 294 290 300 297 313 311 305 303 313 314 311 309 307 305 303 302 305 308 309 307 309 312 312 313 312 307 307 304 306 305 301 302
345 344 323 306 295 294 294 269 296 300 301 294 292 294 282 284 295 300 292 295 307 303 306 300 301 312 311 310 308 307 304 305 310 311 308 309 310 313 312 309 306 302 297 299 300 300 300 303 295